TimeCST,TemperatureF,Dew PointF,Humidity,Sea Level PressureIn,VisibilityMPH,Wind Direction,Wind SpeedMPH,Gust SpeedMPH,PrecipitationIn,Events,Conditions,WindDirDegrees,DateUTC
12:15 AM,28.4,17.6,64,30.25,10.0,NNE,10.4,18.4,N/A,,Clear,20,2013-01-21 06:15:00
12:55 AM,28.4,17.6,64,30.24,10.0,NNE,9.2,-,N/A,,Clear,20,2013-01-21 06:55:00
1:15 AM,28.4,17.6,64,30.25,10.0,NNE,10.4,-,N/A,,Clear,20,2013-01-21 07:15:00
1:55 AM,26.6,15.8,64,30.27,10.0,NNE,10.4,-,N/A,,Clear,30,2013-01-21 07:55:00
2:15 AM,26.6,15.8,64,30.29,10.0,NNE,11.5,-,N/A,,Clear,30,2013-01-21 08:15:00
2:55 AM,26.6,15.8,64,30.30,10.0,NNE,6.9,-,N/A,,Clear,30,2013-01-21 08:55:00
3:15 AM,26.6,15.8,64,30.29,10.0,NE,6.9,-,N/A,,Clear,40,2013-01-21 09:15:00
3:35 AM,26.6,15.8,64,30.29,10.0,NNE,8.1,-,N/A,,Clear,20,2013-01-21 09:35:00
3:56 AM,24.8,15.8,69,30.30,10.0,NNE,9.2,-,N/A,,Clear,20,2013-01-21 09:56:00
4:15 AM,24.8,15.8,69,30.30,10.0,NNE,8.1,-,N/A,,Clear,30,2013-01-21 10:15:00
4:35 AM,24.8,14.0,64,30.31,10.0,NNE,9.2,-,N/A,,Clear,30,2013-01-21 10:35:00
4:55 AM,24.8,12.2,59,30.31,10.0,NE,6.9,-,N/A,,Clear,40,2013-01-21 10:55:00
5:35 AM,23.0,12.2,63,30.31,10.0,NE,6.9,-,N/A,,Clear,40,2013-01-21 11:35:00
6:15 AM,23.0,12.2,63,30.31,10.0,NE,4.6,-,N/A,,Clear,50,2013-01-21 12:15:00
6:35 AM,21.2,12.2,68,30.31,10.0,NNE,6.9,-,N/A,,Clear,20,2013-01-21 12:35:00
6:55 AM,21.2,12.2,68,30.31,10.0,NE,6.9,-,N/A,,Clear,40,2013-01-21 12:55:00
7:15 AM,21.2,12.2,68,30.32,10.0,NE,9.2,-,N/A,,Clear,40,2013-01-21 13:15:00
7:55 AM,21.2,12.2,68,30.32,10.0,NE,6.9,-,N/A,,Clear,40,2013-01-21 13:55:00
8:16 AM,23.0,12.2,63,30.33,10.0,NE,8.1,-,N/A,,Clear,40,2013-01-21 14:16:00
8:35 AM,24.8,10.4,54,30.34,10.0,NE,9.2,-,N/A,,Clear,50,2013-01-21 14:35:00
8:55 AM,24.8,10.4,54,30.34,10.0,NE,10.4,-,N/A,,Clear,50,2013-01-21 14:55:00
9:35 AM,26.6,12.2,55,30.37,10.0,NE,8.1,-,N/A,,Clear,40,2013-01-21 15:35:00
9:55 AM,28.4,10.4,47,30.36,10.0,NE,9.2,-,N/A,,Clear,40,2013-01-21 15:55:00
10:15 AM,28.4,12.2,51,30.36,10.0,NNE,8.1,-,N/A,,Clear,30,2013-01-21 16:15:00
10:36 AM,30.2,12.2,47,30.36,10.0,NNE,8.1,-,N/A,,Clear,20,2013-01-21 16:36:00
10:55 AM,30.2,10.4,44,30.36,10.0,NNE,9.2,-,N/A,,Clear,20,2013-01-21 16:55:00
11:15 AM,32.0,10.4,41,30.37,10.0,NE,9.2,-,N/A,,Clear,50,2013-01-21 17:15:00
11:35 AM,33.8,12.2,41,30.36,10.0,ENE,6.9,-,N/A,,Clear,60,2013-01-21 17:35:00
11:55 AM,33.8,10.4,38,30.35,10.0,NNE,8.1,-,N/A,,Clear,20,2013-01-21 17:55:00
12:15 PM,35.6,10.4,35,30.33,10.0,NE,9.2,-,N/A,,Clear,40,2013-01-21 18:15:00
12:36 PM,35.6,10.4,35,30.32,10.0,NE,6.9,-,N/A,,Clear,40,2013-01-21 18:36:00
12:55 PM,37.4,12.2,36,30.31,10.0,NE,10.4,-,N/A,,Clear,40,2013-01-21 18:55:00
1:15 PM,37.4,12.2,36,30.30,10.0,NNE,9.2,-,N/A,,Clear,20,2013-01-21 19:15:00
1:55 PM,37.4,12.2,36,30.29,10.0,NNE,10.4,-,N/A,,Clear,30,2013-01-21 19:55:00
2:15 PM,37.4,14.0,38,30.29,10.0,NNE,8.1,-,N/A,,Clear,20,2013-01-21 20:15:00
2:35 PM,37.4,14.0,38,30.30,10.0,North,10.4,-,N/A,,Clear,10,2013-01-21 20:35:00
2:56 PM,37.4,14.0,38,30.29,10.0,NNW,8.1,-,N/A,,Clear,330,2013-01-21 20:56:00
3:15 PM,37.4,14.0,38,30.29,10.0,North,6.9,-,N/A,,Clear,350,2013-01-21 21:15:00
3:35 PM,37.4,14.0,38,30.30,10.0,NE,10.4,-,N/A,,Clear,40,2013-01-21 21:35:00
4:15 PM,37.4,14.0,38,30.29,10.0,NE,10.4,-,N/A,,Clear,50,2013-01-21 22:15:00
4:35 PM,35.6,12.2,38,30.29,10.0,NNE,8.1,-,N/A,,Clear,30,2013-01-21 22:35:00
5:15 PM,33.8,12.2,41,30.28,10.0,NE,10.4,-,N/A,,Clear,40,2013-01-21 23:15:00
5:35 PM,32.0,12.2,44,30.27,10.0,ENE,8.1,-,N/A,,Clear,60,2013-01-21 23:35:00
6:15 PM,30.2,12.2,47,30.27,10.0,NE,5.8,-,N/A,,Clear,50,2013-01-22 00:15:00
6:55 PM,28.4,12.2,51,30.26,10.0,NE,5.8,-,N/A,,Clear,50,2013-01-22 00:55:00
7:35 PM,28.4,14.0,55,30.27,10.0,NE,8.1,-,N/A,,Clear,40,2013-01-22 01:35:00
7:56 PM,28.4,12.2,51,30.27,10.0,NE,6.9,-,N/A,,Clear,50,2013-01-22 01:56:00
8:15 PM,28.4,14.0,55,30.27,10.0,NE,8.1,-,N/A,,Clear,50,2013-01-22 02:15:00
8:35 PM,28.4,14.0,55,30.28,10.0,NE,8.1,-,N/A,,Clear,50,2013-01-22 02:35:00
9:15 PM,26.6,14.0,59,30.29,10.0,NE,8.1,-,N/A,,Clear,50,2013-01-22 03:15:00
9:35 PM,26.6,14.0,59,30.30,10.0,NE,8.1,-,N/A,,Clear,50,2013-01-22 03:35:00
9:55 PM,26.6,14.0,59,30.29,10.0,NE,9.2,-,N/A,,Clear,50,2013-01-22 03:55:00
10:16 PM,26.6,14.0,59,30.28,10.0,ENE,5.8,-,N/A,,Clear,70,2013-01-22 04:16:00
10:35 PM,24.8,14.0,64,30.29,10.0,ENE,3.5,-,N/A,,Clear,60,2013-01-22 04:35:00
10:55 PM,24.8,14.0,64,30.29,10.0,NE,5.8,-,N/A,,Clear,50,2013-01-22 04:55:00
11:15 PM,24.8,14.0,64,30.29,10.0,ENE,4.6,-,N/A,,Clear,60,2013-01-22 05:15:00
11:35 PM,24.8,14.0,64,30.28,10.0,ESE,5.8,-,N/A,,Clear,110,2013-01-22 05:35:00
11:55 PM,24.8,14.0,64,30.29,10.0,NE,5.8,-,N/A,,Clear,50,2013-01-22 05:55:00